| time (UTC) | temp F | wind direction | speed MPH | gust MPH | rain 1hr in | rain 24hr in | rain mn in | humidity % | barometer mb |
| 20260831084704 | 78 | 113 | 0.0 | 0.0 | 0.00 | 0.12 | 0.00 | 100 | 1014.9 |
| 20260831084204 | 78 | 113 | 0.0 | 0.0 | 0.00 | 0.12 | 0.00 | 100 | 1014.9 |
| 20260831083704 | 78 | 113 | 0.0 | 0.0 | 0.00 | 0.12 | 0.00 | 100 | 1014.9 |
| 20260831083203 | 78 | 113 | 0.0 | 0.0 | 0.00 | 0.12 | 0.00 | 100 | 1014.9 |
| 20260831081704 | 78 | 113 | 0.0 | 0.0 | 0.00 | 0.12 | 0.00 | 100 | 1014.9 |
| 20260831081204 | 78 | 113 | 0.0 | 0.0 | 0.00 | 0.12 | 0.00 | 100 | 1014.9 |
| 20260831080204 | 78 | 113 | 0.0 | 0.0 | 0.00 | 0.12 | 0.00 | 100 | 1014.9 |
| 20260831074703 | 78 | 113 | 0.0 | 0.0 | 0.00 | 0.12 | 0.00 | 100 | 1014.9 |
| 20260831074204 | 78 | 113 | 0.0 | 0.0 | 0.00 | 0.12 | 0.00 | 100 | 1014.9 |
| 20260831073703 | 78 | 113 | 0.0 | 2.0 | 0.00 | 0.12 | 0.00 | 100 | 1014.9 |
| 20260831071703 | 78 | 80 | 3.0 | 3.0 | 0.00 | 0.12 | 0.00 | 100 | 1014.9 |
| 20260831071204 | 78 | 90 | 3.0 | 3.0 | 0.00 | 0.12 | 0.00 | 100 | 1014.9 |
| 20260831070703 | 78 | 107 | 0.0 | 3.0 | 0.00 | 0.12 | 0.00 | 100 | 1014.9 |
| 20260831070204 | 78 | 95 | 2.0 | 6.0 | 0.00 | 0.12 | 0.00 | 100 | 1014.9 |
| 20260831064703 | 78 | 63 | 3.0 | 6.0 | 0.00 | 0.12 | 0.00 | 100 | 1014.9 |
| 20260831064204 | 78 | 62 | 2.0 | 3.0 | 0.00 | 0.12 | 0.00 | 100 | 1014.9 |
| 20260831063703 | 79 | 357 | 0.0 | 0.0 | 0.00 | 0.12 | 0.00 | 100 | 1014.9 |
| 20260831063203 | 79 | 357 | 0.0 | 0.0 | 0.00 | 0.12 | 0.00 | 100 | 1014.9 |
| 20260831061203 | 79 | 357 | 0.0 | 0.0 | 0.00 | 0.12 | 0.00 | 100 | 1015.9 |
| 20260831060704 | 79 | 357 | 0.0 | 0.0 | 0.00 | 0.12 | 0.00 | 100 | 1015.9 |
| 20260831060203 | 79 | 357 | 0.0 | 0.0 | 0.00 | 0.12 | 0.00 | 100 | 1015.9 |
| 20260831054704 | 79 | 353 | 0.0 | 0.0 | 0.00 | 0.12 | 0.00 | 100 | 1015.9 |
| 20260831053704 | 79 | 353 | 0.0 | 0.0 | 0.00 | 0.12 | 0.00 | 100 | 1015.9 |
| 20260831053204 | 79 | 356 | 0.0 | 3.0 | 0.00 | 0.12 | 0.00 | 100 | 1015.9 |
| 20260831051704 | 79 | 91 | 0.0 | 0.0 | 0.00 | 0.12 | 0.00 | 100 | 1015.9 |
| 20260831051204 | 79 | 91 | 0.0 | 0.0 | 0.00 | 0.12 | 0.00 | 100 | 1015.9 |
| 20260831050203 | 80 | 233 | 0.0 | 0.0 | 0.00 | 0.12 | 0.00 | 100 | 1015.9 |
| 20260831044703 | 80 | 233 | 0.0 | 0.0 | 0.00 | 0.12 | 0.00 | 100 | 1015.9 |
| 20260831044203 | 80 | 233 | 0.0 | 0.0 | 0.00 | 0.12 | 0.00 | 99 | 1015.9 |
| 20260831043704 | 80 | 233 | 0.0 | 0.0 | 0.00 | 0.12 | 0.00 | 99 | 1015.9 |
| 20260831043204 | 80 | 233 | 0.0 | 0.0 | 0.00 | 0.12 | 0.00 | 99 | 1015.9 |
| 20260831041703 | 80 | 233 | 0.0 | 3.0 | 0.00 | 0.12 | 0.00 | 98 | 1016.9 |
| 20260831041204 | 80 | 232 | 2.0 | 2.0 | 0.00 | 0.12 | 0.00 | 99 | 1016.9 |
| 20260831040703 | 80 | 232 | 1.0 | 3.0 | 0.00 | 0.12 | 0.00 | 99 | 1016.9 |
| 20260831040204 | 80 | 232 | 3.0 | 3.0 | 0.00 | 0.12 | 0.00 | 99 | 1016.9 |
| 20260831034704 | 80 | 243 | 2.0 | 3.0 | 0.00 | 0.12 | 0.12 | 98 | 1016.9 |
| 20260831034204 | 80 | 237 | 3.0 | 3.0 | 0.00 | 0.12 | 0.12 | 98 | 1016.9 |
| 20260831033204 | 81 | 219 | 0.0 | 0.0 | 0.00 | 0.12 | 0.12 | 97 | 1016.9 |
| 20260831031704 | 81 | 219 | 0.0 | 0.0 | 0.00 | 0.12 | 0.12 | 97 | 1015.9 |
| 20260831030704 | 81 | 219 | 0.0 | 0.0 | 0.00 | 0.12 | 0.12 | 97 | 1015.9 |
| 20260831030204 | 81 | 180 | 0.0 | 5.0 | 0.00 | 0.12 | 0.12 | 97 | 1015.9 |
| 20260831024204 | 82 | 205 | 5.0 | 8.0 | 0.00 | 0.12 | 0.12 | 96 | 1015.9 |
| 20260831021705 | 82 | 75 | 0.0 | 0.0 | 0.00 | 0.12 | 0.12 | 98 | 1015.9 |
| 20260831021203 | 82 | 75 | 0.0 | 0.0 | 0.00 | 0.12 | 0.12 | 98 | 1015.9 |
| 20260831020704 | 82 | 75 | 0.0 | 0.0 | 0.00 | 0.12 | 0.12 | 98 | 1015.9 |
| 20260831020203 | 82 | 75 | 0.0 | 0.0 | 0.00 | 0.12 | 0.12 | 98 | 1015.9 |
| 20260831014704 | 82 | 75 | 0.0 | 0.0 | 0.00 | 0.12 | 0.12 | 97 | 1015.9 |
| 20260831014205 | 82 | 75 | 0.0 | 0.0 | 0.00 | 0.12 | 0.12 | 97 | 1015.9 |
| 20260831013204 | 82 | 75 | 0.0 | 3.0 | 0.00 | 0.12 | 0.12 | 97 | 1015.9 |
| 20260831011704 | 82 | 68 | 2.0 | 3.0 | 0.00 | 0.12 | 0.12 | 96 | 1015.9 |
| 20260831010703 | 82 | 88 | 0.0 | 0.0 | 0.00 | 0.12 | 0.12 | 96 | 1015.9 |
| 20260831010204 | 82 | 88 | 0.0 | 3.0 | 0.00 | 0.12 | 0.12 | 96 | 1015.9 |
| 20260831004704 | 82 | 92 | 3.0 | 3.0 | 0.00 | 0.12 | 0.12 | 95 | 1015.9 |
| 20260831004205 | 82 | 99 | 2.0 | 5.0 | 0.00 | 0.12 | 0.12 | 95 | 1015.9 |
| 20260831003704 | 82 | 92 | 3.0 | 3.0 | 0.00 | 0.12 | 0.12 | 95 | 1015.9 |
| 20260831001704 | 82 | 88 | 3.0 | 6.0 | 0.00 | 0.12 | 0.12 | 95 | 1015.9 |
| 20260831001204 | 82 | 98 | 4.0 | 6.0 | 0.00 | 0.12 | 0.12 | 93 | 1015.9 |
| 20260831000703 | 82 | 97 | 3.0 | 6.0 | 0.00 | 0.12 | 0.12 | 89 | 1015.9 |
| 20260831000204 | 83 | 94 | 4.0 | 6.0 | 0.00 | 0.12 | 0.12 | 88 | 1015.9 |
| 20260830234703 | 83 | 86 | 3.0 | 5.0 | 0.00 | 0.12 | 0.12 | 84 | 1015.9 |
| 20260830234204 | 83 | 90 | 3.0 | 3.0 | 0.00 | 0.12 | 0.12 | 84 | 1015.9 |
| 20260830233703 | 83 | 90 | 3.0 | 6.0 | 0.00 | 0.12 | 0.12 | 84 | 1015.9 |
| 20260830233204 | 83 | 96 | 3.0 | 6.0 | 0.00 | 0.12 | 0.12 | 84 | 1014.9 |
| 20260830231703 | 83 | 96 | 3.0 | 6.0 | 0.00 | 0.12 | 0.12 | 85 | 1014.9 |
| 20260830231204 | 84 | 93 | 3.0 | 6.0 | 0.00 | 0.12 | 0.12 | 85 | 1014.9 |
| 20260830230704 | 84 | 97 | 3.0 | 6.0 | 0.00 | 0.12 | 0.12 | 85 | 1014.9 |
| 20260830230204 | 84 | 104 | 4.0 | 6.0 | 0.00 | 0.12 | 0.12 | 84 | 1014.9 |
| 20260830224203 | 85 | 82 | 3.0 | 6.0 | 0.00 | 0.12 | 0.12 | 82 | 1014.9 |
| 20260830223704 | 85 | 72 | 3.0 | 6.0 | 0.00 | 0.12 | 0.12 | 82 | 1014.9 |
| 20260830223203 | 85 | 79 | 5.0 | 9.0 | 0.00 | 0.12 | 0.12 | 81 | 1015.9 |
| 20260830221704 | 85 | 104 | 4.0 | 7.0 | 0.00 | 0.12 | 0.12 | 82 | 1015.9 |
| 20260830221204 | 85 | 117 | 6.0 | 7.0 | 0.00 | 0.12 | 0.12 | 81 | 1015.9 |
| 20260830220703 | 85 | 102 | 4.0 | 6.0 | 0.00 | 0.12 | 0.12 | 81 | 1015.9 |
| 20260830220204 | 85 | 104 | 4.0 | 6.0 | 0.00 | 0.12 | 0.12 | 83 | 1014.9 |
| 20260830214704 | 85 | 65 | 4.0 | 6.0 | 0.00 | 0.12 | 0.12 | 81 | 1014.9 |
| 20260830214203 | 86 | 81 | 4.0 | 6.0 | 0.00 | 0.12 | 0.12 | 80 | 1014.9 |
| 20260830213704 | 86 | 100 | 5.0 | 6.0 | 0.00 | 0.12 | 0.12 | 80 | 1014.9 |
| 20260830211703 | 86 | 62 | 5.0 | 6.0 | 0.00 | 0.12 | 0.12 | 79 | 1014.9 |
| 20260830211203 | 86 | 85 | 5.0 | 8.0 | 0.00 | 0.12 | 0.12 | 78 | 1014.9 |
| 20260830210703 | 86 | 75 | 5.0 | 8.0 | 0.00 | 0.12 | 0.12 | 77 | 1014.9 |
| 20260830210204 | 86 | 66 | 3.0 | 8.0 | 0.00 | 0.12 | 0.12 | 76 | 1014.9 |
| 20260830204704 | 86 | 82 | 5.0 | 6.0 | 0.00 | 0.12 | 0.12 | 81 | 1014.9 |
| 20260830204203 | 86 | 101 | 5.0 | 6.0 | 0.00 | 0.12 | 0.12 | 78 | 1014.9 |
| 20260830203204 | 86 | 104 | 5.0 | 8.0 | 0.00 | 0.12 | 0.12 | 79 | 1014.9 |
| 20260830201203 | 86 | 116 | 5.0 | 8.0 | 0.00 | 0.12 | 0.12 | 81 | 1014.9 |
| 20260830200704 | 86 | 50 | 4.0 | 6.0 | 0.00 | 0.16 | 0.12 | 80 | 1014.9 |
| 20260830200204 | 86 | 80 | 4.0 | 6.0 | 0.00 | 0.16 | 0.12 | 81 | 1015.9 |
| 20260830194704 | 86 | 126 | 3.0 | 5.0 | 0.00 | 0.16 | 0.12 | 81 | 1015.9 |
| 20260830194204 | 86 | 122 | 3.0 | 3.0 | 0.00 | 0.16 | 0.12 | 83 | 1015.9 |
| 20260830193704 | 86 | 86 | 3.0 | 6.0 | 0.00 | 0.16 | 0.12 | 83 | 1015.9 |
| 20260830193203 | 86 | 54 | 5.0 | 8.0 | 0.00 | 0.16 | 0.12 | 84 | 1015.9 |
| 20260830191703 | 86 | 89 | 5.0 | 6.0 | 0.00 | 0.16 | 0.12 | 85 | 1015.9 |
| 20260830190704 | 85 | 84 | 4.0 | 6.0 | 0.00 | 0.16 | 0.12 | 84 | 1015.9 |
| 20260830184703 | 86 | 73 | 6.0 | 9.0 | 0.00 | 0.16 | 0.12 | 82 | 1015.9 |
| 20260830183704 | 86 | 119 | 2.0 | 6.0 | 0.00 | 0.16 | 0.12 | 75 | 1015.9 |
| 20260830183204 | 86 | 102 | 4.0 | 6.0 | 0.00 | 0.16 | 0.12 | 75 | 1016.9 |
| 20260830181704 | 86 | 109 | 1.0 | 3.0 | 0.00 | 0.16 | 0.12 | 79 | 1016.9 |
| 20260830181203 | 85 | 100 | 1.0 | 5.0 | 0.00 | 0.16 | 0.12 | 79 | 1016.9 |
| 20260830180703 | 85 | 118 | 1.0 | 3.0 | 0.00 | 0.16 | 0.12 | 77 | 1016.9 |
| 20260830180204 | 85 | 106 | 2.0 | 6.0 | 0.00 | 0.16 | 0.12 | 77 | 1016.9 |
| 20260830174204 | 85 | 139 | 2.0 | 3.0 | 0.00 | 0.16 | 0.12 | 76 | 1016.9 |
| 20260830171704 | 85 | 204 | 3.0 | 6.0 | 0.00 | 0.16 | 0.12 | 82 | 1016.9 |
| 20260830171204 | 85 | 157 | 1.0 | 6.0 | 0.00 | 0.16 | 0.12 | 83 | 1016.9 |
| 20260830170704 | 84 | 179 | 3.0 | 6.0 | 0.00 | 0.16 | 0.12 | 83 | 1016.9 |
| 20260830170204 | 84 | 156 | 1.0 | 5.0 | 0.00 | 0.16 | 0.12 | 81 | 1016.9 |
| 20260830164703 | 83 | 274 | 0.0 | 2.0 | 0.00 | 0.16 | 0.12 | 84 | 1016.9 |
| 20260830164204 | 83 | 331 | 0.0 | 0.0 | 0.00 | 0.16 | 0.12 | 85 | 1016.9 |
| 20260830163704 | 83 | 102 | 0.0 | 3.0 | 0.00 | 0.16 | 0.12 | 85 | 1016.9 |
| 20260830163204 | 83 | 357 | 0.0 | 3.0 | 0.00 | 0.16 | 0.12 | 85 | 1017.9 |
| 20260830161704 | 82 | 155 | 1.0 | 3.0 | 0.00 | 0.16 | 0.12 | 85 | 1017.9 |
| 20260830161203 | 83 | 138 | 1.0 | 6.0 | 0.00 | 0.16 | 0.12 | 85 | 1017.9 |
| 20260830160204 | 82 | 211 | 2.0 | 10.0 | 0.00 | 0.16 | 0.12 | 87 | 1017.9 |
| 20260830154705 | 83 | 189 | 7.0 | 10.0 | 0.00 | 0.16 | 0.12 | 87 | 1016.9 |
| 20260830154204 | 83 | 219 | 6.0 | 8.0 | 0.00 | 0.16 | 0.12 | 90 | 1016.9 |
| 20260830153704 | 83 | 221 | 2.0 | 7.0 | 0.00 | 0.16 | 0.12 | 89 | 1016.9 |
| 20260830153204 | 83 | 210 | 0.0 | 10.0 | 0.00 | 0.16 | 0.12 | 88 | 1017.9 |
| 20260830151703 | 85 | 181 | 7.0 | 20.0 | 0.00 | 0.16 | 0.12 | 79 | 1017.9 |
| 20260830151203 | 86 | 188 | 10.0 | 13.0 | 0.00 | 0.16 | 0.12 | 81 | 1017.9 |
| 20260830150703 | 86 | 145 | 5.0 | 9.0 | 0.08 | 0.16 | 0.12 | 83 | 1017.9 |
| 20260830150204 | 86 | 152 | 5.0 | 8.0 | 0.12 | 0.16 | 0.12 | 85 | 1017.9 |
| 20260830144203 | 84 | 164 | 1.0 | 3.0 | 0.12 | 0.16 | 0.12 | 92 | 1017.9 |
| 20260830143204 | 83 | 48 | 0.0 | 3.0 | 0.12 | 0.16 | 0.12 | 96 | 1017.9 |
| 20260830141704 | 83 | 122 | 3.0 | 6.0 | 0.12 | 0.16 | 0.12 | 96 | 1017.9 |
| 20260830141204 | 84 | 118 | 3.0 | 8.0 | 0.12 | 0.16 | 0.12 | 96 | 1017.9 |
| 20260830140704 | 85 | 130 | 6.0 | 10.0 | 0.04 | 0.08 | 0.04 | 91 | 1017.9 |
| 20260830140204 | 86 | 130 | 3.0 | 6.0 | 0.00 | 0.04 | 0.00 | 88 | 1016.9 |
| 20260830134704 | 89 | 164 | 3.0 | 6.0 | 0.00 | 0.04 | 0.00 | 84 | 1016.9 |
| 20260830134204 | 89 | 169 | 3.0 | 6.0 | 0.00 | 0.04 | 0.00 | 85 | 1016.9 |
| 20260830133703 | 89 | 162 | 6.0 | 8.0 | 0.00 | 0.04 | 0.00 | 87 | 1016.9 |
| 20260830133204 | 88 | 130 | 1.0 | 8.0 | 0.00 | 0.04 | 0.00 | 90 | 1016.9 |
| 20260830131704 | 85 | 182 | 2.0 | 5.0 | 0.00 | 0.04 | 0.00 | 98 | 1016.9 |
| 20260830130204 | 84 | 177 | 3.0 | 7.0 | 0.00 | 0.04 | 0.00 | 98 | 1016.9 |
| 20260830124704 | 84 | 175 | 4.0 | 6.0 | 0.00 | 0.04 | 0.00 | 98 | 1016.9 |
| 20260830124204 | 84 | 207 | 0.0 | 5.0 | 0.00 | 0.04 | 0.00 | 100 | 1016.9 |
| 20260830123704 | 84 | 209 | 3.0 | 6.0 | 0.00 | 0.04 | 0.00 | 100 | 1016.9 |
| 20260830123203 | 83 | 218 | 2.0 | 5.0 | 0.00 | 0.04 | 0.00 | 100 | 1016.9 |
| 20260830121704 | 83 | 236 | 0.0 | 0.0 | 0.00 | 0.04 | 0.00 | 100 | 1016.9 |
| 20260830121204 | 82 | 258 | 0.0 | 0.0 | 0.00 | 0.04 | 0.00 | 100 | 1016.9 |
| 20260830120203 | 81 | 264 | 0.0 | 2.0 | 0.00 | 0.04 | 0.00 | 100 | 1016.9 |
| 20260830114704 | 80 | 295 | 0.0 | 2.0 | 0.00 | 0.04 | 0.00 | 100 | 1015.9 |
| 20260830114203 | 80 | 295 | 0.0 | 3.0 | 0.00 | 0.04 | 0.00 | 100 | 1015.9 |
| 20260830113704 | 80 | 130 | 0.0 | 0.0 | 0.00 | 0.04 | 0.00 | 100 | 1015.9 |
| 20260830113203 | 79 | 130 | 0.0 | 0.0 | 0.00 | 0.04 | 0.00 | 100 | 1015.9 |
| 20260830111204 | 78 | 130 | 0.0 | 0.0 | 0.00 | 0.04 | 0.00 | 100 | 1015.9 |
| 20260830110704 | 78 | 130 | 0.0 | 0.0 | 0.00 | 0.04 | 0.00 | 100 | 1015.9 |
| 20260830110204 | 78 | 130 | 0.0 | 0.0 | 0.00 | 0.04 | 0.00 | 100 | 1014.9 |
| 20260830104205 | 78 | 130 | 0.0 | 0.0 | 0.00 | 0.04 | 0.00 | 100 | 1014.9 |
| 20260830103703 | 78 | 130 | 0.0 | 0.0 | 0.00 | 0.04 | 0.00 | 100 | 1014.9 |
| 20260830103204 | 78 | 130 | 0.0 | 0.0 | 0.00 | 0.04 | 0.00 | 100 | 1014.9 |
| 20260830101704 | 79 | 130 | 0.0 | 0.0 | 0.00 | 0.04 | 0.00 | 100 | 1014.9 |
| 20260830101205 | 79 | 130 | 0.0 | 0.0 | 0.00 | 0.04 | 0.00 | 100 | 1014.9 |
| 20260830100703 | 79 | 130 | 0.0 | 0.0 | 0.00 | 0.04 | 0.00 | 100 | 1014.9 |
| 20260830100203 | 79 | 130 | 0.0 | 0.0 | 0.00 | 0.04 | 0.00 | 100 | 1014.9 |
| 20260830094704 | 79 | 130 | 0.0 | 0.0 | 0.00 | 0.04 | 0.00 | 100 | 1014.9 |
| 20260830094204 | 79 | 130 | 0.0 | 0.0 | 0.00 | 0.04 | 0.00 | 100 | 1014.9 |
| 20260830093704 | 79 | 125 | 0.0 | 5.0 | 0.00 | 0.04 | 0.00 | 100 | 1014.9 |
| 20260830093204 | 79 | 134 | 2.0 | 5.0 | 0.00 | 0.04 | 0.00 | 100 | 1014.9 |
| 20260830091204 | 79 | 131 | 0.0 | 3.0 | 0.00 | 0.04 | 0.00 | 100 | 1014.9 |
| 20260830090703 | 79 | 119 | 0.0 | 3.0 | 0.00 | 0.04 | 0.00 | 100 | 1014.9 |
| 20260830090203 | 79 | 112 | 0.0 | 5.0 | 0.00 | 0.04 | 0.00 | 100 | 1014.9 |